Wind_Speed
30 30 30 31 31 31 31 31 30 30 29 29 29 28 28 27 27 26 26 26 26 26 26 26 26 26 26 26 26 26 26 26 26 26 26 26 25 23 22 21 20 19 18 19 19 19 20 20 22 25 28 29 29 28 27 26 26 27 28 30 31 33 35 36 37 39 41 43 44 47 51 57 64 72 77 81 83 83 82 82 81 81 81 79 78
31 31 32 32 33 33 32 32 32 31 30 30 29 28 28 27 26 26 26 26 26 26 25 26 26 26 26 26 26 26 26 26 26 26 26 26 26 26 25 24 23 22 21 20 20 20 20 20 22 25 27 27 28 27 26 26 26 27 27 29 30 32 34 35 36 38 40 42 43 44 46 48 52 58 65 72 79 83 85 85 85 84 83 83 81
31 32 32 33 33 33 33 33 32 32 32 31 30 30 29 28 27 27 26 26 26 26 26 26 27 27 27 27 27 27 27 27 26 26 26 26 26 26 26 25 24 24 23 22 22 21 20 21 21 23 24 24 24 25 24 24 25 25 26 27 28 30 32 34 35 36 38 41 43 44 45 46 47 50 53 59 66 73 80 84 86 87 86 86 85
32 32 32 32 32 33 33 33 33 33 32 32 32 31 30 30 29 29 28 27 27 27 27 28 28 29 29 29 29 29 29 29 28 28 28 27 27 26 27 27 26 25 25 24 23 23 22 22 22 22 23 23 23 23 23 23 23 24 24 25 25 26 28 30 32 34 35 38 40 42 43 45 46 47 49 52 55 61 67 74 80 85 88 88 88
32 32 32 32 32 33 33 33 34 34 34 34 34 33 33 32 32 31 31 30 29 29 29 29 29 30 30 30 30 30 30 31 31 30 30 30 29 28 27 27 27 27 27 26 26 25 24 24 24 24 24 24 23 24 24 24 24 24 24 24 24 25 25 26 27 29 31 33 36 39 41 43 44 46 47 49 52 54 58 63 69 75 81 86 89
31 32 32 33 33 34 35 35 35 36 36 36 36 36 36 35 35 34 34 33 33 32 32 31 30 30 31 31 31 31 31 32 32 32 32 32 32 31 30 29 29 29 29 29 28 28 27 27 26 26 26 25 25 25 26 26 26 26 26 26 25 25 25 25 25 26 27 29 31 34 37 40 42 44 46 47 50 52 54 56 60 65 71 77 82
31 31 32 33 33 34 35 36 36 37 37 38 38 38 37 37 37 37 36 36 35 35 35 34 33 33 32 32 32 33 33 33 33 34 34 34 34 34 33 32 32 31 30 30 30 30 30 30 29 28 28 28 27 27 28 28 28 28 28 28 27 27 26 26 25 26 26 27 28 29 32 35 38 41 43 46 47 50 52 54 56 59 63 68 73
31 32 32 33 33 34 34 35 35 36 37 37 37 38 38 38 37 37 37 37 36 37 37 37 36 36 35 34 34 34 34 34 35 35 36 36 36 36 36 35 35 35 34 33 32 32 32 32 32 31 31 31 31 30 30 31 31 31 31 30 30 29 29 28 28 27 27 27 27 28 29 30 33 36 39 42 45 47 50 52 54 56 59 62 66
31 31 32 33 33 34 34 34 35 35 35 35 36 36 37 38 38 38 38 37 37 37 37 38 38 38 38 38 37 36 36 36 36 37 37 38 38 38 38 38 38 38 37 37 36 35 34 34 34 34 33 33 33 33 33 33 34 34 34 34 33 32 32 31 30 30 30 30 29 29 29 29 31 33 35 38 41 44 46 49 51 54 57 59 62
32 32 33 33 33 34 34 35 35 35 35 36 36 36 37 38 39 40 40 40 39 39 39 39 39 40 40 40 40 39 39 39 39 39 39 40 41 41 41 41 40 40 40 40 40 39 38 37 36 36 36 36 35 35 35 35 36 37 37 38 37 36 35 34 33 33 33 33 33 32 31 30 31 32 34 35 37 40 43 45 48 51 54 56 59
33 34 35 35 35 36 36 36 36 37 38 39 39 39 39 39 40 40 41 41 41 41 41 41 41 41 42 42 42 41 41 41 41 41 41 42 42 43 44 43 43 42 42 42 42 42 41 41 40 39 38 38 38 37 37 38 38 39 39 40 40 40 39 38 37 36 35 35 35 35 34 33 32 33 34 35 35 36 38 41 44 47 50 54 57
35 35 36 37 37 38 38 39 39 40 41 42 43 43 43 43 43 43 43 43 43 42 42 41 42 42 43 43 44 44 43 42 43 43 43 43 44 45 46 46 45 45 45 45 44 43 44 44 43 42 41 40 40 40 40 40 41 41 42 42 43 43 43 42 41 39 38 37 37 37 37 36 35 35 36 37 37 36 36 38 41 44 47 50 54
37 37 38 38 38 39 40 41 42 43 44 45 46 46 47 47 47 46 46 45 45 44 43 43 42 42 42 43 45 46 46 44 43 44 45 45 45 46 48 48 48 48 47 47 47 46 45 46 47 46 45 44 43 42 42 41 42 43 44 45 45 45 45 45 44 43 42 41 39 39 38 38 37 37 37 38 39 38 38 38 39 41 43 46 50
39 39 39 38 38 39 40 42 43 45 46 47 47 48 49 49 49 48 48 47 47 46 46 45 45 44 44 45 46 47 48 47 46 45 46 46 46 47 49 50 51 50 50 49 48 47 46 47 49 50 49 47 45 44 43 42 42 44 46 47 47 47 47 47 46 46 45 44 42 41 40 39 38 38 38 40 40 41 40 39 39 40 41 43 46
41 41 41 40 40 41 42 43 44 46 47 48 49 49 50 50 50 49 49 49 48 48 47 47 47 48 48 48 48 49 50 50 50 48 47 47 47 47 49 51 52 53 53 51 50 49 48 49 51 52 52 50 48 45 44 43 44 44 46 48 48 48 48 48 47 46 45 45 45 43 41 40 40 39 40 40 42 43 42 40 39 40 41 42 43
43 44 44 44 44 45 45 46 48 49 50 51 52 53 53 53 52 51 50 50 49 49 48 48 48 49 50 50 51 51 52 53 53 52 50 48 47 48 50 52 53 55 56 55 52 51 51 51 52 54 54 52 50 48 46 45 45 45 46 47 48 48 48 48 47 45 45 46 47 44 42 41 41 41 41 41 43 44 43 41 39 40 41 41 41
46 47 47 48 48 49 50 51 52 54 55 56 56 57 57 57 57 55 54 53 52 51 50 50 50 51 52 52 52 52 53 55 56 55 54 53 51 50 51 53 53 55 58 57 55 54 54 54 54 54 54 53 52 50 49 48 47 47 48 48 48 48 49 48 46 44 45 48 48 45 42 42 41 41 42 42 43 45 44 42 40 39 40 41 41
48 49 49 50 52 52 53 55 56 57 58 59 60 61 61 61 61 60 58 57 57 55 52 52 52 53 54 54 54 54 55 57 58 59 59 58 55 53 53 54 55 56 58 58 57 56 55 54 54 54 54 53 52 51 50 50 49 50 51 50 49 49 49 46 44 44 46 47 47 45 43 42 42 42 43 43 43 45 45 43 40 39 40 41 41
50 51 52 54 55 56 57 58 59 60 61 62 62 63 63 63 63 62 60 58 58 58 56 54 54 54 55 56 56 56 57 58 59 61 62 62 60 58 56 55 56 57 57 57 57 57 56 55 56 55 54 53 53 52 51 51 51 52 52 52 51 52 49 45 43 44 46 46 46 45 43 42 42 42 43 44 44 44 46 44 41 39 40 40 41
54 55 56 57 57 58 59 60 61 62 63 63 64 65 65 65 65 64 62 59 58 58 58 57 57 57 57 58 58 58 59 59 60 63 65 66 65 63 61 59 57 56 56 56 58 59 59 58 58 56 55 54 53 53 52 52 52 53 53 52 52 53 50 45 44 45 45 45 46 44 43 42 42 42 43 45 45 44 45 46 43 41 41 41 41
59 59 60 60 60 60 61 61 63 64 65 65 66 67 67 68 68 67 65 62 60 59 59 60 61 61 61 61 61 61 61 61 62 63 66 68 68 67 65 62 59 56 56 57 59 60 60 59 59 57 56 54 54 54 54 53 53 53 53 51 51 51 50 47 45 45 45 45 45 44 44 43 42 41 43 45 46 45 45 46 45 43 42 41 41
62 63 63 63 63 63 64 65 66 67 68 69 69 70 70 70 69 69 67 66 64 63 63 63 64 65 65 66 65 64 64 64 63 63 64 66 70 70 68 64 60 58 57 58 59 60 60 60 59 58 56 55 56 56 54 52 52 53 53 51 50 49 49 48 47 47 46 45 44 45 45 44 42 41 44 46 47 47 46 45 46 45 42 41 41
66 66 67 67 67 67 68 69 69 71 71 72 73 73 73 72 71 70 69 67 67 66 67 67 67 68 69 69 68 67 67 66 66 65 63 63 67 69 69 67 63 60 58 58 59 59 59 59 59 58 57 56 57 56 54 52 52 53 53 51 49 48 48 47 47 48 48 46 45 46 46 45 43 44 45 46 47 48 47 45 46 45 43 40 40
69 70 70 71 71 71 72 72 73 73 74 74 75 75 75 74 74 72 71 70 70 70 70 71 71 72 72 72 71 70 69 69 68 67 65 64 64 65 67 67 65 61 58 58 59 59 59 59 59 59 58 57 57 56 54 52 52 52 52 51 49 48 48 47 46 47 47 47 47 46 46 46 47 47 48 48 48 48 47 45 45 45 44 41 40
72 73 73 74 74 75 75 75 76 76 76 77 77 77 78 77 76 74 74 73 73 73 73 74 74 75 75 74 73 72 71 70 70 68 66 65 64 63 63 64 63 60 56 56 58 58 58 59 59 58 58 57 56 56 55 53 52 51 51 51 50 48 48 47 46 45 46 47 47 47 48 50 51 51 51 50 49 48 47 45 44 45 45 42 41
75 76 77 77 77 78 78 78 79 79 80 80 80 80 80 79 78 76 76 75 76 76 76 76 77 78 77 76 74 72 71 70 69 68 66 65 64 63 62 60 59 57 53 54 57 58 57 58 59 57 57 56 55 55 55 54 53 52 51 50 50 50 49 47 46 45 45 46 47 49 51 54 55 55 54 52 50 49 46 43 42 43 44 44 43
79 79 79 80 81 81 81 81 82 82 83 83 83 83 82 81 80 79 78 78 78 79 79 79 79 79 78 76 74 73 72 70 68 66 65 64 63 62 60 58 56 54 52 53 57 57 57 59 59 58 57 56 55 55 55 55 54 53 52 51 50 50 50 48 47 46 45 47 49 51 54 56 58 58 57 54 52 48 44 42 42 43 44 44 45
81 81 81 82 83 83 83 84 84 84 85 85 85 85 85 84 83 82 82 82 82 82 82 81 80 79 78 76 74 73 72 70 68 66 64 63 61 60 59 56 55 53 52 53 55 57 58 59 59 58 58 57 55 55 56 57 56 54 53 52 52 52 51 49 48 47 47 49 51 53 56 58 59 60 59 57 53 49 45 44 44 43 44 44 46
83 83 84 84 85 85 85 86 86 87 87 88 88 87 87 86 85 85 86 86 86 85 84 82 80 78 76 74 73 73 72 70 68 66 63 62 60 58 57 55 54 53 53 53 55 57 58 59 59 60 60 59 57 56 57 57 57 55 54 54 54 53 52 51 49 49 50 51 52 54 56 58 60 61 61 60 58 54 50 48 46 44 45 46 46
85 86 87 87 88 88 88 88 89 90 90 90 90 90 89 89 88 89 90 90 90 88 85 82 80 77 75 73 72 72 71 70 68 65 63 60 59 57 55 53 53 53 54 55 56 58 59 60 61 62 63 62 60 59 59 59 58 57 56 55 55 54 54 53 52 51 50 51 53 55 56 58 60 61 62 62 62 59 55 52 49 47 46 47 48
89 90 90 91 91 91 91 91 92 93 93 93 92 92 92 92 92 93 93 93 92 89 85 82 79 77 74 73 71 70 69 69 67 65 62 60 58 56 54 53 52 53 54 56 57 59 60 62 63 64 65 65 64 63 62 60 59 59 59 57 56 56 55 55 54 53 52 52 54 56 57 59 61 61 62 63 63 61 57 55 53 51 49 49 50
92 93 94 94 94 94 94 94 95 95 94 94 94 94 94 94 95 96 97 96 92 87 83 80 78 76 74 72 71 70 68 67 66 64 61 59 57 56 55 54 54 55 56 57 58 61 62 64 66 67 68 68 67 66 65 63 61 61 61 60 58 57 57 56 56 56 55 54 56 57 59 61 62 62 63 64 64 62 58 55 55 54 51 50 51
95 96 96 96 96 97 97 97 97 96 96 96 96 96 96 96 98 99 99 96 92 87 82 79 76 74 73 72 70 69 68 66 65 63 61 59 58 56 56 57 57 57 58 60 61 63 65 66 68 69 69 70 69 68 67 66 64 63 63 62 60 59 59 58 58 57 57 57 58 59 60 62 63 64 64 64 63 61 58 55 53 53 52 52 52
98 98 99 99 99 99 99 99 98 98 98 97 97 98 98 99 100 100 98 94 90 87 84 81 78 75 73 71 70 68 67 65 64 63 62 60 59 59 58 59 60 61 62 63 64 65 67 68 70 70 71 71 71 70 69 68 66 65 64 63 62 61 61 60 60 60 60 60 61 61 62 64 64 65 65 63 62 60 58 54 51 50 51 52 52
100 101 101 101 101 101 101 100 100 100 99 99 99 99 100 101 101 99 94 90 87 86 84 83 80 77 74 72 70 69 67 65 64 63 62 61 61 61 61 62 63 64 65 66 67 68 69 70 71 71 72 72 72 71 70 69 68 66 65 64 62 62 62 62 62 62 62 62 63 64 64 65 65 65 64 63 61 59 57 54 51 50 51 51 52
103 103 103 103 103 103 102 101 101 101 100 100 100 101 102 101 99 96 92 88 86 84 83 82 80 78 76 73 72 70 69 67 65 64 64 63 63 63 63 64 65 66 67 68 69 70 71 71 72 72 72 72 72 72 71 70 69 67 66 65 63 62 62 62 63 64 63 63 64 65 66 66 65 64 63 62 60 59 57 55 53 51 50 50 51
105 105 105 104 104 103 103 102 102 102 101 102 103 103 102 99 96 92 90 88 85 83 82 80 78 77 76 74 72 72 71 69 68 66 66 65 65 65 65 66 66 67 69 70 71 71 71 72 71 71 71 71 71 71 70 69 68 67 66 65 64 63 62 63 63 64 63 63 64 65 65 65 64 63 62 61 60 59 58 55 54 52 49 49 51
106 106 106 105 104 104 103 103 103 103 104 104 104 103 100 96 93 91 89 86 84 82 81 79 78 76 75 73 72 72 72 71 70 69 68 68 67 67 67 67 67 67 68 69 70 71 71 71 71 70 70 69 69 69 69 68 67 66 65 65 65 64 63 63 64 63 62 62 64 65 64 63 63 62 61 60 60 60 58 56 54 51 49 49 51
108 107 106 106 105 104 104 104 104 105 106 105 103 100 97 94 92 89 87 85 83 81 80 79 77 76 74 73 72 71 71 71 71 71 71 70 70 69 68 68 68 68 68 68 69 69 70 70 70 70 69 69 69 69 68 68 67 66 65 65 65 65 64 64 64 64 63 62 63 64 63 63 62 62 61 60 60 61 59 56 53 51 49 50 52
108 108 107 106 106 105 105 106 106 106 105 102 100 97 95 92 90 88 86 84 82 80 79 78 77 75 75 74 73 71 71 71 72 72 72 72 72 72 71 70 69 69 69 69 69 69 69 69 69 70 70 70 70 69 69 69 68 67 67 66 66 65 66 66 65 65 64 64 63 63 63 63 63 63 62 61 61 61 59 56 53 52 51 52 53
109 108 108 107 107 108 108 108 107 104 101 99 96 94 92 90 88 86 84 82 80 79 78 77 76 75 75 75 74 73 72 72 72 72 73 73 73 74 74 73 73 72 72 71 71 71 71 70 70 71 71 71 70 70 70 70 69 68 68 67 67 66 66 67 66 66 65 65 64 63 63 64 64 64 63 62 61 60 59 56 53 52 53 53 53
110 109 109 109 110 110 109 107 104 101 98 96 94 92 90 88 86 84 82 81 79 78 77 76 76 76 75 75 75 75 74 74 73 73 73 74 74 74 75 75 75 75 75 74 73 73 72 71 71 72 71 71 70 70 69 69 68 68 67 67 66 66 66 67 67 66 65 65 64 63 63 64 65 65 63 62 60 59 58 54 52 52 54 54 53
111 111 111 111 111 109 106 103 100 98 95 93 91 89 88 86 84 82 81 80 78 78 77 77 76 76 76 76 76 76 76 76 75 75 74 74 74 74 74 75 75 75 75 75 74 73 72 71 71 71 71 71 70 69 68 67 66 66 66 65 64 63 64 65 65 64 63 63 62 62 62 63 64 64 62 60 58 57 55 52 51 53 55 54 53
113 113 112 110 107 104 101 99 96 94 92 90 89 87 85 84 82 81 80 79 79 78 78 78 78 77 77 77 77 76 76 76 76 75 75 74 74 73 73 73 73 73 73 74 73 72 71 70 70 71 71 71 70 69 68 67 66 65 64 63 62 62 62 62 63 62 61 61 60 61 61 62 62 61 59 58 57 55 52 51 52 54 55 54 52
113 111 108 105 102 100 97 95 93 92 90 88 86 85 83 82 81 80 79 79 79 79 79 79 78 78 78 77 77 76 76 76 75 75 74 73 73 72 71 71 71 72 72 73 73 73 72 71 70 70 71 72 72 71 70 69 67 66 65 64 63 62 62 61 61 61 60 60 60 60 60 61 61 60 58 56 55 52 50 51 53 53 53 52 50
109 105 102 100 98 96 94 92 91 89 88 86 84 83 81 80 80 79 79 79 79 79 79 79 78 78 78 77 77 76 75 75 74 73 73 72 72 71 71 70 71 71 71 72 73 72 71 70 69 69 70 71 71 71 70 69 68 67 66 65 64 64 63 62 61 60 60 61 61 61 61 61 61 60 58 56 53 50 50 52 53 52 51 51 50
102 100 98 96 94 93 91 89 88 86 85 83 82 81 80 80 79 79 79 79 79 79 79 78 78 78 77 76 76 75 74 73 73 72 72 72 71 70 69 68 68 68 69 69 69 68 67 67 66 66 67 67 68 68 67 66 66 65 65 64 64 63 63 63 62 61 61 62 63 63 63 63 62 60 58 56 53 51 51 52 53 52 51 51 50
98 96 94 93 91 90 88 87 85 84 83 81 81 80 80 80 80 80 80 79 79 79 79 78 78 77 76 75 75 74 74 72 72 71 70 70 68 67 66 65 65 64 64 64 64 63 62 61 61 62 62 62 62 62 62 61 61 61 61 60 61 61 61 61 61 60 61 62 64 65 65 64 62 61 60 57 55 53 53 52 52 52 52 51 49
94 92 91 89 88 86 85 84 83 82 81 80 80 80 80 80 79 79 79 79 79 79 78 78 77 76 75 74 74 74 73 71 70 68 67 65 64 62 61 60 60 60 59 59 58 57 56 56 56 56 56 56 56 56 55 55 55 55 55 55 55 56 57 57 58 59 59 61 64 65 65 64 64 64 63 60 57 55 55 54 54 53 52 50 47
90 88 87 86 84 83 82 82 81 80 80 79 79 79 79 79 79 79 79 78 78 77 77 76 76 76 75 74 73 73 71 69 66 64 62 60 58 57 56 56 56 55 55 54 54 53 52 52 51 51 51 52 51 51 50 49 50 50 50 49 50 51 52 53 54 55 56 58 61 63 64 64 65 65 64 62 59 57 57 56 55 54 51 48 45
86 85 83 82 81 81 80 80 80 79 79 79 79 79 79 79 79 79 78 78 77 75 75 75 75 76 75 74 72 70 67 65 62 59 57 55 54 53 53 53 52 52 51 50 49 49 49 48 48 48 48 48 48 47 46 46 46 46 46 45 46 46 47 48 50 51 52 54 58 61 63 63 63 63 63 62 61 60 59 58 56 54 51 47 45
Wind_Direction
14 13 13 13 13 13 13 14 14 14 15 15 16 17 18 18 18 18 17 16 16 14 13 12 10 8 6 3 360 357 354 352 350 347 346 344 343 341 339 335 330 324 319 314 309 305 302 299 295 291 289 289 290 290 286 281 275 269 263 259 257 255 254 253 254 255 254 252 249 246 244 243 242 241 241 241 241 241 240 240 240 240 239 238 238
16 14 13 12 12 11 10 9 9 9 9 9 9 10 10 10 11 11 11 11 11 10 10 9 9 8 7 5 3 0 357 353 350 347 344 342 340 338 336 335 332 329 325 320 315 311 306 301 294 291 291 292 293 292 290 287 283 278 273 268 264 261 257 255 253 254 255 255 254 252 249 247 245 244 243 242 241 241 241 241 241 241 241 240 239
16 15 13 11 10 8 7 5 4 3 3 2 2 2 2 2 2 2 3 3 3 3 3 3 3 3 3 3 1 359 357 355 352 349 346 342 339 336 333 331 329 326 323 320 317 314 310 305 301 298 298 297 297 297 296 293 289 285 281 276 272 267 262 259 256 254 255 256 256 255 254 252 250 248 246 245 243 242 241 241 241 241 242 241 240
16 14 12 10 8 7 5 3 1 359 358 357 357 356 356 355 355 355 355 355 355 356 356 357 357 358 358 358 357 355 354 353 351 349 347 344 341 337 333 330 327 323 320 317 315 313 311 308 305 303 302 301 301 300 298 297 295 292 289 285 281 276 271 266 262 258 257 256 256 256 255 254 253 252 250 248 246 245 243 242 241 241 241 241 241
14 13 11 10 8 6 5 3 1 359 357 355 353 352 351 350 350 349 348 348 348 348 349 350 351 351 352 352 352 351 350 349 348 347 345 344 342 340 337 333 329 325 320 317 313 310 308 306 304 303 303 302 301 301 300 299 298 297 295 293 289 285 280 276 271 267 263 260 258 258 257 255 254 253 252 251 249 248 246 245 243 241 240 240 240
11 10 8 7 6 5 3 2 360 358 356 354 352 350 348 347 345 344 343 342 342 341 342 343 343 344 344 345 346 346 346 346 345 345 343 342 340 339 338 336 332 328 324 320 316 311 308 305 303 301 301 301 300 299 299 298 297 297 295 294 292 289 286 282 278 275 271 268 264 262 260 259 257 255 253 252 251 250 248 247 245 244 242 241 240
6 6 5 4 3 1 0 359 357 356 354 352 350 348 346 344 343 341 339 338 337 336 335 335 336 336 337 338 339 339 340 341 341 341 341 340 339 337 336 334 333 331 328 324 320 315 310 307 303 301 300 299 298 298 297 296 296 296 294 293 291 290 289 287 284 281 278 275 271 269 266 264 262 260 257 255 253 252 251 249 247 246 245 243 242
1 0 0 360 359 358 357 356 354 353 351 349 347 345 343 342 340 338 337 335 333 332 331 330 329 329 330 331 332 333 334 335 336 336 336 337 337 336 334 332 331 330 329 327 323 319 314 309 305 302 300 298 298 297 297 296 296 295 294 293 292 291 289 288 287 286 284 281 278 275 273 271 269 266 263 260 257 255 253 252 250 249 247 246 244
355 355 355 354 354 353 353 352 350 348 346 345 343 341 339 338 337 335 334 332 331 329 328 326 325 324 324 324 325 327 328 330 331 331 332 333 333 332 332 331 329 327 326 325 323 321 318 313 308 303 299 297 295 295 295 295 296 296 295 294 293 292 290 289 288 288 287 286 284 281 279 279 277 274 270 267 263 259 256 253 253 252 250 248 247
349 350 350 350 349 348 348 346 345 343 342 340 339 338 336 335 333 332 331 330 329 327 326 324 322 321 320 320 321 322 323 325 326 327 328 328 328 328 328 328 327 325 324 322 321 320 318 316 312 307 302 298 294 292 291 291 292 292 293 293 293 292 290 289 289 288 288 287 287 285 284 283 283 281 278 274 270 266 261 257 254 253 252 251 250
346 346 346 345 344 343 342 341 340 339 339 338 337 336 335 333 331 329 328 327 326 325 324 322 321 320 319 319 319 319 319 320 322 322 323 323 324 324 324 324 325 323 322 320 318 317 316 315 313 310 306 301 296 292 289 288 288 287 288 289 290 290 290 289 288 288 287 287 288 288 287 286 287 287 285 282 277 272 267 262 258 254 252 251 251
343 343 342 341 340 339 338 337 336 336 336 336 335 334 333 332 330 328 326 324 323 322 321 320 319 319 318 318 318 318 317 317 318 318 318 319 319 319 319 320 321 321 320 318 317 315 313 313 312 310 307 303 300 296 293 291 289 286 284 284 284 286 287 288 288 288 287 287 287 287 287 288 289 290 290 288 284 279 273 267 262 258 255 252 251
340 339 339 338 337 336 335 333 333 333 334 334 333 332 331 330 329 328 326 323 321 320 320 319 318 317 317 318 318 317 316 315 315 315 315 315 316 316 315 315 316 317 318 317 316 314 311 310 309 309 307 304 301 300 298 295 292 289 285 283 283 283 284 285 286 287 287 287 286 285 285 286 287 289 291 291 289 285 280 273 267 262 259 256 253
336 336 336 335 334 333 332 331 330 331 331 331 331 330 329 328 328 326 324 322 319 319 318 317 317 316 316 316 316 315 314 313 313 313 313 312 313 313 312 311 312 313 314 315 315 313 310 307 306 306 305 303 302 301 300 298 295 292 289 287 286 285 285 285 285 286 286 286 285 284 284 285 285 287 290 291 290 287 283 279 274 268 263 260 256
334 333 333 332 331 330 330 329 329 329 329 329 329 328 328 327 326 325 323 321 318 317 316 315 315 314 314 314 313 313 312 311 310 311 310 310 311 310 309 309 309 310 311 312 313 312 309 305 304 304 304 303 301 300 300 298 296 293 291 290 289 289 288 287 285 285 286 285 284 283 283 284 285 287 289 290 290 288 285 282 278 272 268 264 260
331 331 331 330 329 329 329 329 329 329 328 328 328 327 327 326 325 325 323 320 318 316 314 313 312 312 312 312 312 312 311 310 310 310 309 309 309 309 307 307 308 308 308 309 310 311 308 305 303 302 303 303 301 299 298 297 296 294 290 288 288 289 288 287 286 286 286 284 282 282 283 283 284 286 288 290 291 289 286 284 280 275 271 267 264
330 330 329 328 327 328 328 328 328 328 328 328 328 327 327 326 325 325 324 321 318 316 315 314 312 311 311 311 311 311 311 310 310 310 309 308 308 308 306 306 306 306 305 307 309 310 308 305 303 302 301 301 300 298 297 296 296 294 291 288 287 287 286 286 287 287 285 283 282 282 282 282 283 285 288 290 291 290 288 286 283 278 273 269 267
328 328 326 325 326 327 327 328 328 328 328 327 327 327 327 326 325 325 324 321 319 317 317 315 313 312 311 311 312 312 311 311 310 309 307 306 306 305 305 304 304 303 303 305 307 308 307 305 303 302 300 300 299 296 295 295 295 295 293 290 289 287 286 288 289 286 283 281 281 282 281 281 282 284 287 289 291 292 290 287 284 280 275 271 269
327 326 325 325 325 326 326 326 326 326 326 326 325 325 325 324 323 323 322 320 318 317 316 315 313 312 312 311 312 311 310 309 309 307 305 304 305 304 303 303 302 301 303 304 303 303 302 300 299 298 296 297 297 294 292 292 293 293 293 292 290 288 288 290 288 284 281 280 280 280 279 279 280 283 286 289 291 292 291 289 287 283 278 273 271
325 324 324 324 324 324 325 325 324 324 324 324 324 324 324 323 322 321 320 319 317 316 315 315 314 313 312 311 311 310 309 308 308 306 305 305 305 304 303 301 300 299 300 299 297 298 298 297 296 295 294 294 293 291 290 290 291 292 293 291 289 289 290 291 287 282 281 279 279 278 278 277 279 282 286 289 290 291 292 291 289 286 281 276 272
321 321 322 322 322 322 322 323 323 323 323 323 323 323 323 322 321 321 319 318 316 315 315 314 314 313 313 311 310 310 308 307 306 305 305 305 304 301 300 299 297 296 295 294 294 295 296 296 296 296 294 292 290 288 289 290 290 291 291 289 288 289 290 289 286 283 280 278 278 277 276 276 278 281 285 288 290 291 292 291 290 287 283 279 274
318 318 319 319 320 320 321 322 323 323 323 323 323 323 322 321 320 319 318 317 316 315 315 314 314 313 313 312 311 309 308 306 305 303 303 303 301 300 298 298 296 295 293 293 293 294 295 295 296 295 294 291 288 288 289 290 290 290 290 289 288 288 288 288 287 284 281 279 278 276 276 277 279 282 285 287 289 291 291 291 290 288 284 280 276
316 317 318 318 319 319 321 322 322 322 323 323 322 322 321 320 319 318 316 316 315 315 315 314 314 313 313 312 311 309 307 305 304 302 301 300 298 297 297 296 295 294 292 291 291 292 292 293 294 294 291 289 288 288 289 289 290 289 289 289 288 287 287 287 285 283 282 281 278 276 277 279 281 283 284 286 288 290 291 291 290 287 284 280 276
316 317 317 317 318 319 320 321 321 321 321 321 321 320 320 319 318 317 317 316 315 315 315 314 314 314 313 312 310 308 306 305 303 301 300 298 295 294 293 293 293 291 289 288 289 289 290 291 292 291 289 288 288 288 289 289 290 290 289 288 287 286 286 285 284 282 281 281 280 280 281 282 283 283 284 285 287 289 290 290 289 287 283 279 275
316 316 316 317 317 318 319 319 319 320 319 319 319 319 319 318 318 317 317 316 315 315 314 314 314 313 312 311 308 307 305 303 302 301 299 297 295 292 291 290 290 288 286 284 284 285 287 288 288 288 286 286 286 287 288 289 290 291 289 287 286 285 284 284 283 281 280 280 281 282 282 282 282 283 284 285 286 287 287 288 288 287 284 280 275
316 316 316 316 316 317 317 318 318 318 318 318 318 318 318 318 317 317 316 315 315 314 314 313 313 312 311 309 307 305 303 302 301 300 298 297 295 293 291 289 288 286 282 279 280 282 284 285 285 285 284 284 285 287 288 289 291 291 289 286 284 283 282 282 282 280 278 278 278 279 279 280 281 282 283 284 285 285 285 286 287 287 286 283 279
315 315 315 315 315 316 316 317 317 317 317 317 317 317 317 316 316 315 315 314 314 314 313 313 312 311 310 308 306 304 302 301 300 299 297 296 295 294 292 290 287 283 278 276 278 281 282 283 284 284 283 284 285 287 288 289 290 291 289 286 283 281 280 280 280 279 276 275 275 276 277 279 281 283 284 284 285 284 284 285 286 287 287 285 282
312 312 313 313 313 314 314 315 315 315 315 315 315 315 315 315 314 314 314 314 314 313 313 312 311 310 309 307 305 303 301 300 299 299 298 297 295 293 291 289 286 281 278 276 277 280 281 282 283 283 283 284 285 286 287 288 289 290 290 286 282 279 278 278 278 277 274 273 273 275 277 279 282 284 286 287 287 286 286 286 286 286 286 285 284
311 311 311 312 312 313 313 313 313 313 314 314 314 314 314 314 313 313 313 314 314 313 312 311 310 309 308 306 304 303 301 300 299 299 298 297 295 293 290 287 284 281 279 277 277 279 280 282 283 283 283 284 284 285 285 286 287 289 289 286 281 278 276 276 275 274 273 272 272 273 275 278 281 283 285 287 287 287 287 286 285 285 286 285 283
310 310 311 311 312 312 313 313 312 313 313 313 313 313 313 313 312 312 313 314 314 313 311 310 309 308 306 304 303 302 301 300 299 299 298 296 294 291 288 285 282 280 279 278 278 279 280 281 282 282 282 283 283 283 284 284 285 287 287 285 281 278 275 274 273 272 271 271 270 271 272 274 276 279 281 284 285 286 286 286 286 285 285 285 283
310 310 310 311 312 312 312 312 312 312 312 312 312 312 312 312 312 312 313 313 313 311 310 309 308 307 305 304 302 301 300 299 299 298 297 295 293 290 287 283 280 278 277 277 277 278 279 280 280 281 281 282 283 283 283 283 284 284 285 284 281 277 274 272 272 271 270 269 269 269 270 271 273 275 278 279 281 282 284 285 286 285 284 283 281
309 309 310 311 311 311 311 311 311 311 311 311 311 311 311 311 312 312 312 312 311 310 308 307 306 305 304 303 302 301 299 298 298 297 296 294 292 289 287 284 280 277 275 274 274 274 275 276 277 278 279 280 281 282 282 282 282 282 283 282 280 276 273 271 270 270 270 269 269 269 270 271 272 274 275 276 278 280 281 282 283 283 282 281 279
308 309 309 310 310 310 310 310 310 310 310 310 310 310 310 311 311 312 312 311 310 308 307 305 304 303 303 302 301 300 299 298 297 296 294 293 291 289 286 283 281 278 275 273 272 272 272 273 274 275 276 277 279 280 281 281 281 281 281 281 279 276 274 272 271 270 270 269 269 269 269 271 272 273 274 275 276 278 279 279 279 280 279 278 276
308 308 308 309 309 309 309 309 309 309 309 309 309 309 310 310 311 311 310 310 309 307 306 305 304 303 302 301 300 299 299 298 297 296 294 293 291 288 286 283 281 279 277 275 273 272 272 272 273 274 275 276 278 279 279 280 280 279 279 279 277 275 274 273 272 271 270 270 270 269 269 270 271 272 273 275 276 276 277 277 277 276 276 275 275
307 307 307 308 308 308 308 308 308 308 308 308 309 309 309 310 310 310 309 308 307 306 306 305 305 304 303 302 301 299 298 297 296 294 293 291 289 287 285 283 281 279 278 277 276 275 274 274 274 275 276 277 278 278 279 279 279 279 278 277 275 274 273 272 271 270 270 269 269 269 269 270 271 272 273 274 275 276 276 276 275 274 273 274 274
306 306 306 306 307 307 307 307 308 307 308 308 308 309 309 309 309 308 307 307 306 305 305 304 304 303 303 302 301 300 298 297 296 294 292 290 288 286 284 282 280 279 278 277 277 276 276 276 276 276 277 277 277 278 278 278 278 277 277 276 274 273 272 271 270 269 269 269 269 269 269 270 271 272 273 273 274 275 275 275 274 273 272 272 272
305 305 305 306 306 306 306 307 307 307 307 308 308 309 309 308 308 307 306 306 305 305 304 303 303 302 302 302 301 300 298 297 296 294 292 290 289 287 285 283 282 280 280 279 278 278 277 277 277 277 277 277 277 277 277 276 276 275 275 274 273 272 271 270 269 269 269 269 269 269 269 270 270 271 272 272 273 273 272 272 272 271 271 270 270
304 304 305 305 305 305 306 306 307 307 308 308 308 308 308 307 307 306 305 305 305 304 303 302 302 301 301 301 300 299 298 297 296 294 292 291 289 287 286 285 283 282 281 280 280 279 279 279 278 278 277 277 276 276 275 275 274 274 273 273 272 271 270 269 269 269 268 268 268 268 269 270 270 271 271 271 271 271 271 271 271 271 270 270 269
304 304 305 305 305 305 306 306 307 307 308 308 308 307 307 306 306 305 305 304 304 303 303 302 301 301 300 299 298 297 297 296 295 294 293 292 290 289 287 286 285 283 282 281 280 280 279 279 279 278 278 277 276 276 275 274 273 273 272 271 271 270 270 269 269 269 268 267 267 268 269 269 269 269 269 269 269 270 270 270 270 270 269 267 266
304 304 304 305 305 305 306 306 307 307 307 307 306 306 306 305 305 304 304 303 303 302 302 301 301 300 300 299 298 297 296 295 294 294 293 292 291 290 289 288 287 285 284 283 282 281 280 279 279 278 277 277 276 275 274 274 273 272 272 271 270 270 269 269 268 268 268 268 267 267 268 268 268 268 268 268 268 268 269 269 269 269 267 266 265
303 304 304 304 305 305 306 306 306 306 306 305 305 305 304 304 304 303 303 302 302 302 302 301 300 300 299 298 297 296 295 294 293 293 292 292 291 291 290 289 288 287 286 284 283 282 281 280 279 278 277 276 275 274 273 273 272 272 271 270 270 269 268 268 268 267 267 267 267 267 267 267 267 267 267 267 267 268 269 269 269 268 267 265 264
303 303 304 304 305 305 305 306 305 305 305 304 304 304 303 303 303 303 303 302 302 302 301 300 299 299 298 297 297 296 295 294 293 293 292 291 291 290 290 289 288 288 286 285 284 283 282 281 280 278 277 276 275 273 272 271 271 270 269 268 268 267 267 267 267 266 266 266 266 266 266 266 266 266 266 267 267 267 268 268 268 267 265 264 263
303 303 304 304 304 304 304 304 304 304 304 303 303 303 303 303 303 303 302 302 302 301 300 299 299 298 297 297 296 296 295 295 294 293 292 292 291 290 289 288 287 286 285 284 283 283 282 281 279 279 278 276 275 274 272 271 270 269 268 267 266 265 265 265 265 265 265 264 265 265 264 264 265 265 266 267 267 267 267 267 265 263 262 262 262
302 303 303 303 303 303 303 303 303 303 303 303 303 303 302 302 302 302 302 302 301 300 300 299 298 298 297 297 296 296 296 295 295 294 293 292 291 289 288 287 286 285 284 283 282 281 280 279 278 277 277 276 275 274 273 271 270 268 267 266 265 264 263 263 263 264 263 263 263 263 263 263 264 264 265 265 265 265 265 263 261 260 261 261 261
302 302 302 302 302 302 302 302 302 302 302 302 302 302 302 302 302 302 301 301 300 300 299 298 298 298 298 297 297 297 296 296 295 294 293 292 290 289 288 286 285 283 282 281 280 280 279 278 277 276 275 275 274 273 272 272 271 269 268 267 265 264 262 261 261 261 262 261 261 261 261 261 262 262 262 262 262 262 262 260 259 259 260 260 260
301 301 301 301 302 302 302 302 302 302 302 302 302 302 302 302 302 301 301 300 300 299 299 299 299 299 299 299 299 298 297 296 295 294 293 291 290 289 287 286 285 283 282 281 280 279 278 277 276 275 274 273 272 272 272 271 271 270 268 267 265 264 262 261 259 259 258 259 259 259 259 259 259 260 260 260 260 259 257 257 258 258 258 258 257
300 300 301 301 301 301 301 301 301 301 301 301 301 301 302 301 301 301 300 300 300 300 300 300 300 300 300 300 299 298 297 296 295 294 293 292 291 290 288 287 286 284 282 281 280 279 279 278 276 275 274 273 272 272 272 271 270 269 268 267 265 264 262 261 259 257 255 255 256 256 257 257 258 259 259 259 258 256 255 255 256 256 256 255 255
299 300 300 300 300 300 300 300 300 300 301 301 302 302 302 302 301 301 301 301 301 301 302 302 302 301 301 300 299 298 297 297 296 295 294 293 292 291 290 288 287 285 283 282 281 281 280 279 277 276 275 274 273 272 272 271 270 269 267 266 265 263 262 260 258 256 254 253 253 253 254 256 257 257 257 256 255 254 253 253 254 254 254 254 254
299 299 299 299 299 300 300 300 300 300 301 301 302 302 302 301 301 301 302 302 302 303 303 303 302 302 301 301 300 299 298 298 297 296 296 295 293 292 290 289 287 286 285 284 283 282 281 280 279 277 276 275 274 273 272 271 270 268 267 265 264 262 260 259 257 255 253 251 251 252 252 253 253 254 255 254 253 252 252 252 252 253 253 255 255
298 298 299 299 299 299 299 300 300 301 301 301 301 301 301 302 302 302 303 303 303 304 304 303 303 303 302 302 301 300 300 299 298 298 296 295 293 292 290 289 287 286 286 285 284 283 282 281 280 278 277 276 275 274 273 272 270 268 266 264 262 261 259 257 255 254 252 250 250 250 250 250 250 251 253 254 254 253 252 252 252 253 254 254 254
298 298 298 299 299 299 300 300 301 301 302 302 302 302 302 303 303 303 304 304 304 304 304 304 304 303 303 302 301 301 300 300 299 298 297 295 294 292 291 290 288 288 287 286 285 284 283 281 280 278 277 276 275 274 273 271 269 268 266 264 261 260 258 256 254 252 251 249 248 248 248 249 249 249 251 252 253 252 251 252 252 253 253 252 251
Height
10684 10683 10681 10679 10677 10674 10672 10670 10668 10666 10664 10663 10661 10659 10657 10655 10653 10651 10649 10647 10645 10643 10641 10639 10637 10634 10632 10630 10628 10626 10624 10622 10620 10618 10616 10614 10612 10610 10608 10606 10605 10603 10601 10600 10598 10597 10595 10594 10593 10592 10591 10590 10588 10587 10586 10585 10584 10583 10583 10582 10582 10581 10581 10580 10579 10578 10577 10577 10578 10579 10580 10580 10581 10582 10584 10586 10588 10591 10593 10596 10598 10600 10604 10607 10612
10685 10683 10681 10679 10676 10674 10672 10671 10669 10667 10665 10663 10661 10659 10657 10655 10653 10651 10649 10647 10645 10643 10641 10639 10637 10634 10632 10630 10628 10626 10624 10621 10619 10617 10615 10612 10610 10608 10606 10604 10602 10600 10599 10597 10595 10594 10592 10591 10590 10589 10587 10586 10584 10583 10581 10580 10579 10578 10578 10578 10577 10577 10576 10576 10575 10574 10572 10571 10571 10572 10572 10573 10573 10574 10575 10576 10578 10580 10583 10586 10588 10591 10593 10597 10601
10684 10682 10680 10678 10676 10674 10673 10671 10669 10667 10665 10664 10662 10660 10658 10656 10654 10651 10649 10647 10645 10643 10640 10638 10636 10634 10631 10629 10627 10625 10623 10621 10618 10616 10614 10611 10609 10606 10604 10602 10600 10598 10596 10594 10592 10591 10589 10588 10586 10585 10583 10582 10580 10579 10577 10576 10575 10574 10573 10573 10572 10572 10571 10570 10570 10569 10567 10566 10565 10565 10566 10566 10566 10567 10567 10567 10568 10570 10572 10575 10578 10580 10583 10586 10590
10684 10682 10681 10679 10677 10675 10673 10671 10669 10667 10665 10663 10662 10660 10658 10656 10653 10651 10649 10647 10645 10642 10640 10637 10635 10633 10630 10628 10626 10623 10621 10619 10617 10615 10613 10610 10608 10605 10603 10600 10598 10596 10594 10592 10590 10588 10586 10585 10583 10581 10580 10578 10577 10575 10574 10573 10572 10570 10569 10568 10567 10566 10566 10565 10564 10563 10562 10561 10560 10559 10559 10559 10559 10560 10560 10560 10560 10561 10562 10564 10566 10569 10572 10575 10579
10684 10683 10681 10679 10677 10675 10673 10671 10669 10666 10664 10662 10660 10658 10657 10655 10653 10650 10648 10646 10644 10641 10639 10636 10634 10631 10629 10627 10624 10622 10620 10617 10615 10613 10611 10608 10606 10604 10601 10599 10596 10594 10592 10589 10587 10585 10583 10582 10580 10578 10577 10575 10573 10572 10571 10569 10568 10567 10565 10564 10563 10562 10561 10560 10558 10557 10556 10555 10554 10553 10552 10552 10552 10553 10553 10553 10553 10553 10553 10554 10556 10558 10560 10563 10567
10685 10683 10681 10678 10676 10674 10672 10670 10667 10665 10663 10660 10658 10656 10654 10652 10650 10649 10647 10644 10642 10640 10637 10635 10632 10630 10627 10625 10622 10620 10618 10615 10613 10611 10609 10606 10604 10601 10599 10597 10594 10592 10589 10587 10585 10583 10581 10579 10577 10575 10573 10572 10570 10569 10567 10566 10565 10563 10562 10561 10560 10558 10557 10556 10554 10553 10551 10550 10549 10548 10547 10546 10546 10546 10546 10546 10545 10545 10546 10546 10547 10548 10549 10552 10555
10684 10682 10680 10678 10676 10673 10671 10669 10666 10664 10661 10659 10656 10654 10652 10650 10648 10646 10644 10643 10640 10638 10636 10633 10631 10628 10626 10623 10620 10617 10615 10613 10610 10608 10606 10604 10601 10599 10596 10594 10592 10589 10587 10585 10582 10580 10578 10575 10573 10572 10570 10568 10567 10565 10563 10562 10560 10559 10558 10557 10555 10554 10553 10552 10550 10549 10547 10546 10544 10543 10542 10541 10540 10539 10539 10539 10539 10539 10539 10539 10539 10540 10540 10541 10543
10683 10681 10679 10677 10675 10673 10670 10668 10666 10663 10661 10659 10656 10654 10651 10649 10647 10645 10643 10640 10638 10636 10633 10631 10628 10626 10623 10621 10618 10615 10613 10610 10608 10605 10602 10600 10598 10595 10593 10590 10588 10586 10584 10581 10579 10577 10575 10572 10570 10568 10566 10564 10562 10561 10559 10558 10556 10554 10553 10552 10551 10549 10548 10547 10546 10544 10543 10541 10540 10538 10537 10536 10534 10533 10533 10532 10532 10532 10532 10532 10532 10532 10532 10533 10534
10682 10680 10678 10676 10674 10671 10669 10667 10665 10663 10660 10658 10656 10653 10650 10647 10645 10642 10640 10638 10636 10633 10630 10628 10625 10623 10620 10618 10615 10613 10610 10607 10604 10602 10599 10596 10594 10591 10589 10586 10584 10582 10580 10578 10575 10573 10571 10568 10566 10564 10562 10560 10558 10556 10555 10553 10551 10550 10548 10546 10545 10544 10543 10542 10540 10539 10537 10536 10535 10533 10532 10530 10529 10528 10527 10526 10525 10525 10525 10526 10526 10525 10525 10525 10525
10680 10678 10676 10674 10672 10670 10668 10666 10663 10661 10659 10656 10654 10651 10649 10645 10642 10639 10636 10634 10631 10629 10627 10624 10621 10619 10616 10614 10612 10609 10607 10604 10601 10598 10595 10592 10589 10587 10584 10582 10580 10578 10575 10573 10571 10569 10567 10564 10562 10560 10558 10556 10554 10552 10550 10548 10547 10545 10543 10541 10539 10538 10537 10535 10534 10533 10532 10530 10529 10528 10526 10525 10523 10522 10521 10520 10518 10518 10518 10518 10519 10518 10518 10518 10518
10677 10675 10673 10671 10669 10667 10665 10663 10661 10659 10656 10653 10651 10648 10646 10643 10640 10637 10634 10630 10628 10625 10622 10619 10617 10614 10612 10609 10607 10605 10603 10600 10597 10594 10591 10588 10585 10582 10580 10577 10575 10573 10571 10568 10566 10564 10561 10559 10557 10555 10553 10551 10549 10547 10545 10543 10541 10539 10537 10536 10534 10532 10531 10529 10528 10527 10526 10525 10523 10522 10520 10519 10517 10516 10514 10513 10512 10511 10511 10510 10511 10511 10511 10510 10510
10675 10673 10671 10669 10666 10664 10661 10659 10657 10655 10653 10650 10647 10645 10642 10640 10637 10634 10631 10628 10625 10622 10619 10616 10613 10610 10607 10605 10602 10600 10598 10596 10594 10590 10587 10584 10581 10578 10575 10573 10570 10568 10566 10563 10561 10559 10557 10554 10551 10549 10547 10545 10543 10541 10539 10537 10535 10533 10531 10530 10528 10527 10525 10523 10522 10521 10520 10518 10517 10516 10514 10513 10511 10510 10508 10507 10506 10505 10504 10503 10503 10503 10503 10503 10502
10672 10670 10668 10666 10664 10661 10658 10655 10653 10651 10649 10646 10643 10641 10638 10635 10633 10630 10627 10624 10621 10618 10615 10613 10610 10608 10605 10602 10598 10595 10592 10591 10590 10586 10583 10580 10577 10574 10570 10567 10565 10563 10561 10558 10556 10554 10551 10548 10546 10543 10541 10539 10537 10535 10534 10532 10529 10527 10524 10523 10522 10521 10519 10517 10516 10515 10514 10512 10511 10510 10509 10507 10506 10504 10502 10500 10499 10498 10497 10497 10496 10496 10496 10495 10495
10668 10667 10665 10663 10661 10659 10656 10653 10650 10648 10645 10643 10640 10637 10634 10631 10629 10626 10624 10620 10617 10614 10611 10608 10605 10603 10601 10598 10596 10592 10588 10586 10585 10582 10579 10576 10573 10570 10566 10562 10560 10558 10556 10554 10551 10548 10546 10543 10540 10537 10535 10533 10532 10530 10528 10526 10523 10520 10517 10515 10514 10514 10512 10511 10510 10509 10507 10506 10504 10503 10503 10501 10499 10498 10496 10494 10493 10491 10490 10490 10489 10488 10488 10488 10487
10665 10663 10661 10659 10657 10655 10653 10650 10648 10645 10642 10640 10637 10634 10631 10628 10625 10623 10620 10616 10613 10610 10607 10604 10600 10597 10595 10593 10590 10587 10583 10579 10578 10576 10574 10571 10568 10565 10561 10557 10554 10551 10549 10548 10546 10544 10540 10537 10533 10530 10528 10527 10525 10524 10523 10520 10517 10514 10511 10508 10506 10506 10505 10503 10503 10502 10501 10499 10497 10496 10496 10495 10493 10491 10490 10487 10486 10484 10483 10483 10482 10481 10481 10480 10480
10660 10657 10655 10653 10651 10649 10647 10645 10642 10639 10637 10634 10631 10628 10625 10623 10620 10618 10615 10611 10608 10605 10602 10599 10595 10592 10589 10586 10584 10581 10576 10572 10570 10568 10567 10565 10563 10560 10555 10552 10548 10544 10541 10541 10540 10538 10535 10531 10528 10524 10522 10520 10518 10517 10516 10514 10511 10507 10504 10502 10500 10498 10496 10495 10495 10496 10495 10491 10489 10489 10490 10488 10487 10485 10483 10481 10479 10477 10476 10476 10475 10474 10473 10473 10472
10654 10652 10649 10647 10645 10642 10640 10637 10634 10631 10629 10626 10623 10620 10617 10614 10612 10610 10607 10604 10600 10598 10595 10592 10588 10585 10582 10579 10577 10574 10570 10565 10561 10559 10557 10555 10555 10553 10549 10545 10543 10538 10534 10532 10532 10531 10527 10524 10521 10518 10515 10513 10511 10510 10508 10506 10503 10500 10497 10495 10494 10492 10489 10488 10489 10490 10487 10484 10482 10482 10483 10482 10480 10478 10476 10475 10472 10469 10468 10469 10468 10467 10466 10465 10465
10649 10646 10644 10641 10639 10636 10633 10631 10627 10624 10621 10618 10615 10612 10609 10605 10602 10600 10598 10595 10591 10588 10587 10584 10581 10577 10574 10571 10569 10566 10562 10558 10554 10551 10547 10545 10545 10544 10542 10539 10536 10532 10528 10525 10524 10523 10520 10516 10513 10511 10509 10506 10504 10502 10500 10498 10495 10492 10488 10486 10485 10483 10481 10482 10483 10482 10480 10477 10475 10475 10476 10475 10474 10472 10470 10468 10466 10463 10461 10461 10461 10460 10459 10458 10458
10644 10641 10638 10635 10632 10629 10627 10624 10621 10618 10615 10612 10609 10606 10603 10599 10596 10593 10591 10588 10584 10580 10578 10576 10573 10570 10567 10563 10561 10559 10556 10552 10547 10542 10538 10535 10534 10533 10532 10530 10528 10525 10522 10520 10517 10515 10513 10510 10506 10503 10502 10500 10497 10495 10493 10490 10487 10484 10481 10479 10476 10473 10473 10476 10477 10474 10472 10470 10468 10468 10469 10468 10467 10466 10464 10462 10459 10457 10454 10454 10454 10454 10452 10451 10450
10637 10635 10632 10629 10626 10623 10621 10618 10615 10612 10610 10607 10603 10600 10597 10594 10590 10587 10584 10582 10579 10574 10570 10567 10564 10562 10559 10556 10553 10551 10548 10545 10540 10533 10527 10524 10522 10521 10520 10519 10518 10517 10516 10514 10511 10508 10505 10502 10499 10495 10494 10493 10490 10487 10485 10483 10480 10477 10475 10472 10468 10465 10465 10468 10468 10466 10464 10462 10460 10461 10462 10461 10460 10459 10458 10455 10453 10450 10448 10446 10447 10446 10445 10444 10443
10631 10629 10626 10623 10620 10618 10615 10613 10610 10607 10604 10601 10597 10594 10590 10586 10582 10579 10575 10573 10570 10567 10563 10560 10556 10553 10550 10547 10545 10542 10539 10536 10532 10526 10520 10515 10511 10510 10509 10509 10508 10508 10507 10504 10502 10499 10497 10494 10490 10487 10485 10484 10482 10479 10477 10475 10472 10469 10467 10464 10462 10459 10458 10459 10458 10457 10456 10454 10453 10453 10454 10453 10453 10453 10451 10449 10446 10444 10442 10440 10439 10439 10438 10437 10436
10625 10622 10619 10616 10614 10611 10608 10605 10603 10599 10596 10593 10590 10586 10583 10579 10575 10571 10567 10564 10561 10558 10555 10552 10548 10544 10541 10537 10535 10533 10529 10526 10523 10519 10516 10510 10502 10497 10498 10498 10498 10497 10496 10494 10491 10490 10488 10485 10482 10479 10476 10474 10472 10471 10469 10468 10465 10461 10458 10457 10455 10453 10451 10450 10449 10448 10447 10447 10446 10446 10445 10445 10446 10446 10445 10443 10440 10437 10435 10434 10432 10432 10431 10430 10429
10618 10615 10612 10608 10605 10603 10600 10597 10594 10591 10588 10584 10581 10577 10574 10570 10567 10563 10560 10556 10553 10549 10546 10543 10539 10535 10532 10528 10525 10522 10519 10516 10512 10509 10508 10504 10496 10489 10487 10487 10487 10486 10485 10483 10481 10480 10479 10477 10473 10469 10467 10465 10463 10461 10461 10460 10457 10453 10450 10449 10447 10446 10444 10443 10441 10439 10438 10438 10438 10438 10437 10437 10438 10438 10437 10436 10434 10431 10429 10427 10426 10425 10424 10423 10422
10611 10607 10604 10600 10597 10594 10591 10588 10586 10583 10579 10576 10572 10568 10565 10561 10558 10554 10550 10547 10543 10540 10536 10532 10528 10524 10521 10517 10514 10510 10507 10504 10500 10497 10496 10494 10489 10483 10480 10477 10476 10476 10475 10472 10470 10469 10469 10467 10464 10460 10458 10456 10454 10452 10452 10451 10449 10445 10443 10441 10439 10438 10436 10435 10434 10432 10431 10430 10430 10429 10429 10429 10429 10429 10429 10428 10427 10424 10422 10421 10419 10417 10417 10416 10415
10603 10599 10596 10592 10589 10585 10582 10579 10576 10574 10571 10568 10564 10559 10555 10551 10548 10544 10540 10537 10533 10530 10526 10522 10518 10513 10510 10506 10502 10499 10496 10492 10489 10486 10483 10480 10477 10474 10471 10468 10466 10466 10465 10462 10460 10460 10459 10457 10455 10452 10450 10448 10446 10444 10442 10441 10440 10437 10435 10433 10431 10430 10429 10427 10426 10426 10425 10423 10422 10421 10421 10420 10420 10420 10420 10420 10419 10418 10416 10415 10413 10410 10409 10408 10408
10595 10591 10587 10584 10581 10578 10575 10571 10567 10564 10560 10557 10554 10550 10546 10542 10538 10535 10532 10528 10524 10520 10516 10512 10507 10502 10498 10494 10491 10487 10484 10481 10478 10475 10471 10468 10464 10462 10460 10457 10455 10455 10455 10452 10449 10450 10450 10448 10445 10443 10441 10439 10437 10435 10433 10431 10430 10429 10427 10425 10424 10422 10420 10420 10419 10418 10418 10416 10414 10414 10413 10411 10411 10411 10410 10410 10411 10410 10409 10408 10407 10404 10401 10400 10400
10586 10583 10579 10576 10573 10569 10566 10562 10558 10554 10550 10546 10543 10539 10536 10532 10529 10526 10523 10519 10515 10510 10506 10502 10497 10492 10487 10482 10478 10475 10472 10469 10467 10464 10460 10457 10453 10450 10447 10446 10444 10444 10444 10442 10439 10440 10440 10437 10435 10433 10431 10429 10428 10426 10423 10421 10420 10419 10418 10417 10416 10414 10412 10412 10411 10410 10410 10409 10407 10406 10405 10403 10402 10401 10401 10401 10401 10401 10400 10400 10399 10397 10395 10393 10392
10579 10576 10572 10569 10565 10561 10557 10553 10549 10545 10542 10537 10534 10530 10526 10522 10519 10516 10512 10508 10504 10500 10496 10491 10487 10482 10476 10471 10466 10462 10459 10456 10454 10452 10449 10446 10443 10439 10436 10435 10433 10433 10433 10431 10430 10429 10428 10426 10424 10422 10420 10419 10418 10417 10414 10412 10410 10410 10409 10408 10407 10405 10404 10404 10403 10402 10401 10401 10400 10399 10398 10396 10394 10392 10390 10390 10390 10391 10391 10391 10391 10390 10388 10386 10384
10572 10568 10565 10561 10557 10553 10549 10545 10540 10536 10532 10528 10524 10521 10517 10512 10508 10504 10500 10496 10492 10488 10484 10479 10475 10470 10465 10460 10455 10450 10446 10443 10441 10440 10437 10434 10431 10429 10426 10424 10423 10422 10421 10421 10420 10419 10417 10416 10414 10412 10410 10409 10409 10407 10405 10403 10401 10401 10400 10399 10398 10397 10396 10395 10395 10394 10393 10392 10392 10392 10390 10389 10386 10384 10382 10382 10381 10381 10381 10382 10382 10382 10380 10378 10377
10563 10559 10555 10552 10548 10544 10540 10535 10530 10526 10522 10518 10513 10508 10505 10501 10497 10492 10488 10484 10480 10476 10472 10467 10463 10458 10453 10449 10444 10439 10435 10431 10428 10427 10426 10423 10421 10418 10416 10414 10412 10411 10410 10409 10409 10408 10407 10405 10404 10402 10400 10399 10398 10397 10396 10394 10392 10391 10390 10389 10388 10388 10387 10386 10385 10385 10385 10384 10384 10383 10382 10381 10379 10377 10376 10374 10373 10372 10372 10372 10372 10373 10372 10370 10368
10552 10548 10544 10541 10538 10534 10529 10525 10520 10515 10511 10507 10502 10497 10492 10488 10484 10480 10476 10472 10467 10463 10459 10455 10450 10446 10441 10437 10433 10429 10425 10421 10417 10415 10413 10411 10409 10408 10406 10404 10403 10402 10400 10399 10398 10397 10396 10395 10393 10391 10389 10388 10387 10386 10385 10385 10384 10382 10380 10379 10379 10378 10378 10377 10376 10376 10376 10376 10375 10373 10372 10371 10370 10370 10369 10367 10365 10363 10364 10364 10363 10362 10363 10362 10360
10542 10537 10533 10530 10527 10522 10517 10513 10509 10505 10500 10495 10490 10485 10481 10476 10471 10466 10462 10458 10454 10451 10447 10443 10439 10434 10430 10425 10421 10417 10414 10411 10408 10405 10402 10400 10398 10396 10394 10393 10393 10392 10391 10390 10388 10387 10386 10384 10382 10380 10378 10377 10376 10375 10374 10373 10373 10372 10370 10370 10369 10369 10368 10367 10367 10366 10367 10366 10365 10364 10363 10362 10361 10361 10360 10359 10357 10355 10356 10357 10356 10354 10353 10353 10352
10531 10526 10522 10519 10515 10511 10506 10502 10498 10493 10489 10484 10479 10474 10469 10465 10460 10454 10448 10443 10438 10435 10432 10430 10427 10423 10418 10414 10409 10406 10402 10399 10397 10394 10392 10390 10388 10386 10384 10382 10381 10380 10379 10378 10377 10376 10374 10373 10371 10369 10368 10366 10365 10364 10363 10362 10361 10361 10360 10359 10359 10359 10358 10357 10357 10356 10356 10356 10355 10354 10354 10352 10351 10350 10350 10349 10348 10348 10348 10349 10349 10347 10346 10345 10344
10521 10515 10511 10508 10504 10499 10494 10490 10486 10480 10476 10472 10468 10463 10458 10453 10448 10442 10437 10430 10424 10418 10415 10412 10411 10409 10406 10402 10398 10395 10392 10388 10385 10383 10381 10378 10376 10375 10373 10371 10369 10368 10367 10366 10365 10364 10362 10361 10359 10358 10356 10355 10353 10352 10352 10350 10350 10349 10348 10348 10348 10348 10347 10346 10346 10346 10345 10345 10344 10343 10343 10342 10340 10340 10340 10339 10339 10339 10339 10340 10341 10340 10338 10337 10336
10509 10504 10500 10497 10492 10487 10482 10478 10474 10468 10464 10460 10456 10451 10446 10441 10435 10429 10424 10419 10414 10407 10401 10396 10393 10392 10391 10389 10385 10382 10380 10377 10375 10372 10370 10368 10366 10364 10362 10359 10358 10356 10355 10353 10352 10351 10350 10348 10347 10345 10344 10343 10341 10340 10339 10339 10338 10337 10337 10337 10337 10337 10336 10335 10335 10334 10334 10333 10333 10332 10331 10330 10330 10330 10330 10330 10330 10330 10330 10331 10331 10331 10330 10329 10328
10497 10493 10489 10484 10480 10475 10470 10466 10462 10457 10452 10448 10443 10438 10433 10428 10422 10416 10411 10406 10402 10397 10391 10385 10381 10377 10375 10374 10371 10368 10365 10364 10363 10361 10359 10357 10355 10353 10351 10349 10346 10344 10342 10340 10339 10338 10337 10335 10334 10333 10332 10330 10329 10328 10327 10326 10326 10325 10325 10324 10324 10325 10325 10324 10323 10322 10322 10322 10322 10321 10320 10320 10320 10320 10320 10320 10320 10321 10321 10321 10321 10321 10321 10321 10320
10486 10482 10477 10472 10468 10463 10458 10454 10449 10444 10439 10434 10429 10424 10419 10414 10408 10403 10398 10393 10389 10384 10379 10375 10371 10366 10363 10361 10358 10354 10351 10350 10349 10347 10346 10344 10342 10340 10338 10337 10334 10332 10330 10327 10325 10324 10323 10322 10321 10320 10319 10318 10316 10315 10314 10314 10313 10313 10313 10312 10312 10312 10313 10312 10311 10310 10311 10312 10311 10310 10309 10310 10310 10310 10310 10311 10310 10310 10311 10311 10311 10312 10313 10312 10311
10473 10469 10465 10460 10456 10451 10446 10441 10436 10431 10425 10420 10415 10410 10405 10399 10394 10390 10385 10380 10376 10372 10367 10363 10359 10356 10352 10350 10346 10342 10338 10335 10333 10332 10331 10330 10328 10326 10324 10323 10321 10320 10317 10315 10312 10310 10309 10308 10307 10306 10306 10305 10304 10302 10302 10301 10301 10301 10301 10300 10299 10299 10300 10300 10298 10298 10300 10301 10300 10298 10298 10299 10300 10299 10300 10301 10301 10300 10300 10302 10302 10303 10304 10303 10301
10458 10455 10451 10446 10442 10438 10433 10428 10423 10417 10411 10406 10400 10395 10391 10386 10381 10377 10372 10368 10364 10360 10355 10350 10347 10343 10341 10338 10335 10332 10328 10323 10320 10317 10315 10314 10312 10311 10310 10309 10307 10306 10304 10302 10299 10297 10296 10294 10293 10292 10291 10290 10289 10288 10288 10288 10288 10288 10288 10287 10287 10286 10286 10286 10286 10286 10288 10289 10288 10288 10288 10289 10289 10288 10289 10291 10291 10290 10290 10292 10293 10294 10295 10294 10291
10445 10441 10437 10432 10428 10424 10420 10415 10410 10404 10399 10393 10387 10382 10377 10373 10368 10364 10360 10356 10351 10347 10343 10338 10334 10331 10327 10324 10321 10320 10317 10313 10309 10305 10302 10299 10297 10295 10294 10293 10292 10291 10289 10287 10285 10284 10283 10281 10280 10278 10277 10276 10275 10274 10274 10273 10274 10275 10274 10274 10275 10274 10274 10273 10273 10274 10275 10276 10276 10277 10277 10277 10277 10278 10278 10279 10280 10280 10280 10283 10285 10285 10285 10284 10282
10432 10428 10424 10419 10414 10410 10405 10401 10396 10391 10386 10380 10375 10370 10365 10360 10356 10352 10348 10344 10340 10335 10331 10326 10322 10318 10315 10311 10307 10305 10304 10302 10298 10294 10291 10287 10284 10281 10279 10277 10275 10274 10273 10272 10270 10269 10268 10267 10266 10264 10263 10261 10261 10261 10260 10260 10260 10261 10261 10261 10262 10262 10261 10260 10260 10262 10263 10263 10264 10266 10266 10265 10265 10266 10267 10268 10270 10270 10271 10273 10275 10275 10274 10275 10274
10420 10415 10410 10406 10401 10396 10391 10387 10382 10377 10372 10367 10362 10357 10352 10348 10344 10340 10335 10331 10327 10323 10319 10314 10310 10306 10302 10299 10295 10291 10289 10287 10285 10282 10279 10276 10272 10269 10266 10263 10260 10258 10257 10255 10254 10253 10253 10252 10251 10249 10247 10246 10246 10247 10247 10247 10247 10248 10248 10248 10249 10249 10248 10247 10247 10249 10250 10251 10252 10254 10254 10253 10253 10254 10256 10258 10260 10260 10261 10264 10265 10265 10264 10265 10265
10407 10402 10398 10393 10388 10383 10378 10374 10368 10364 10359 10354 10349 10345 10340 10335 10331 10327 10323 10318 10314 10310 10306 10302 10298 10294 10290 10286 10282 10279 10275 10272 10270 10268 10265 10263 10260 10257 10254 10250 10247 10244 10242 10240 10239 10238 10238 10237 10236 10233 10232 10230 10230 10231 10232 10233 10234 10234 10234 10235 10236 10237 10237 10235 10235 10237 10239 10240 10240 10242 10243 10242 10241 10243 10246 10248 10249 10250 10252 10254 10255 10254 10253 10254 10255
10394 10390 10385 10380 10375 10370 10366 10361 10356 10351 10347 10342 10337 10333 10329 10324 10319 10315 10310 10306 10301 10297 10293 10289 10285 10281 10277 10273 10270 10266 10262 10259 10256 10253 10251 10248 10246 10243 10240 10237 10234 10231 10228 10225 10223 10223 10223 10223 10222 10220 10218 10216 10215 10216 10216 10218 10219 10220 10221 10222 10223 10224 10225 10224 10224 10225 10227 10229 10229 10230 10230 10230 10230 10232 10235 10237 10238 10240 10242 10243 10243 10243 10244 10245 10247
10381 10377 10372 10367 10362 10357 10352 10348 10343 10339 10334 10330 10325 10321 10317 10312 10307 10303 10299 10294 10289 10285 10280 10276 10272 10268 10264 10260 10256 10253 10249 10245 10242 10239 10236 10234 10231 10229 10227 10224 10221 10218 10214 10211 10209 10209 10209 10209 10208 10207 10205 10203 10201 10201 10202 10203 10204 10206 10207 10209 10210 10211 10212 10213 10214 10215 10216 10217 10218 10218 10219 10219 10220 10222 10224 10226 10228 10230 10232 10232 10232 10234 10235 10236 10238
10369 10364 10359 10354 10349 10344 10340 10335 10330 10326 10322 10317 10313 10309 10304 10300 10296 10291 10287 10282 10277 10272 10268 10263 10259 10255 10251 10247 10243 10239 10235 10232 10229 10225 10222 10219 10217 10215 10213 10210 10207 10204 10201 10197 10195 10194 10194 10194 10194 10193 10191 10189 10188 10187 10188 10189 10191 10192 10193 10195 10196 10198 10199 10201 10203 10205 10206 10206 10206 10207 10208 10209 10210 10211 10214 10216 10219 10221 10222 10221 10222 10224 10226 10227 10228
10356 10351 10346 10342 10337 10332 10328 10323 10319 10314 10310 10305 10301 10297 10292 10288 10283 10279 10274 10269 10264 10260 10255 10251 10246 10242 10238 10234 10230 10226 10222 10219 10216 10212 10208 10205 10202 10200 10198 10195 10192 10189 10186 10183 10181 10180 10180 10180 10179 10178 10177 10176 10175 10174 10175 10176 10177 10179 10180 10181 10183 10184 10186 10188 10191 10193 10194 10194 10195 10196 10197 10198 10200 10202 10204 10207 10210 10211 10212 10213 10214 10216 10217 10218 10220
10343 10339 10334 10329 10325 10320 10316 10312 10307 10303 10298 10294 10290 10285 10280 10276 10271 10266 10261 10256 10252 10247 10243 10238 10234 10230 10226 10222 10217 10213 10209 10206 10203 10199 10195 10192 10189 10186 10184 10181 10178 10175 10172 10170 10168 10167 10167 10167 10166 10165 10164 10163 10163 10162 10163 10164 10165 10166 10167 10168 10170 10171 10173 10175 10178 10180 10182 10183 10184 10184 10186 10188 10191 10193 10195 10197 10199 10201 10202 10204 10205 10206 10207 10209 10212
10332 10327 10322 10318 10313 10308 10304 10300 10295 10291 10286 10282 10278 10274 10269 10264 10259 10254 10249 10245 10240 10235 10230 10226 10221 10217 10214 10210 10205 10200 10196 10193 10190 10187 10183 10180 10176 10173 10170 10168 10165 10162 10160 10158 10156 10156 10155 10154 10153 10152 10152 10151 10151 10151 10152 10152 10153 10154 10155 10156 10157 10159 10160 10162 10165 10167 10170 10171 10172 10173 10176 10179 10180 10181 10182 10185 10188 10191 10193 10194 10196 10197 10199 10201 10204
10320 10315 10311 10306 10302 10297 10292 10288 10284 10279 10275 10271 10267 10262 10257 10252 10247 10242 10238 10233 10229 10224 10219 10214 10209 10204 10201 10197 10193 10188 10184 10181 10178 10175 10172 10168 10165 10162 10159 10156 10153 10151 10150 10148 10146 10145 10144 10143 10143 10142 10141 10140 10140 10141 10141 10142 10142 10143 10144 10145 10146 10147 10148 10150 10152 10154 10157 10160 10160 10161 10164 10167 10169 10170 10171 10174 10178 10181 10183 10184 10186 10189 10191 10194 10196
10308 10304 10299 10295 10290 10286 10281 10276 10272 10268 10263 10259 10254 10249 10245 10240 10235 10230 10226 10221 10218 10214 10209 10204 10198 10193 10188 10184 10180 10177 10173 10170 10167 10163 10160 10157 10155 10152 10148 10145 10143 10141 10140 10138 10137 10135 10134 10133 10132 10132 10131 10130 10130 10131 10132 10132 10132 10132 10133 10135 10136 10136 10138 10139 10141 10143 10146 10148 10149 10150 10152 10155 10158 10161 10163 10164 10167 10170 10173 10175 10177 10180 10183 10186 10189